CW3508 Weather Reports


Display with metric or nautical units.
time (UTC)temp
F
wind
direction
speed
MPH
gust
MPH
rain 1hr
in
rain 24hr
in
rain mn
in
humidity
%
barometer
mb
20260902192514 98 223 0.0 3.0 0.00 0.00 0.00 51 1013.5
20260902192036 98 280 0.0 0.0 0.00 0.00 0.00 52 1013.5
20260902191525 99 346 0.0 0.0 0.00 0.00 0.00 51 1013.5
20260902191034 99 346 0.0 1.0 0.00 0.00 0.00 51 1013.9
20260902190521 99 346 0.0 1.0 0.00 0.00 0.00 51 1013.9
20260902190023 100 47 0.0 1.0 0.00 0.00 0.00 50 1013.9
20260902185554 100 163 0.0 3.0 0.00 0.00 0.00 50 1014.0
20260902185024 100 310 0.0 3.0 0.00 0.00 0.00 50 1014.0
20260902184524 100 325 0.0 0.0 0.00 0.00 0.00 51 1014.0
20260902184057 100 325 0.0 1.0 0.00 0.00 0.00 50 1014.3
20260902183547 100 325 0.0 3.0 0.00 0.00 0.00 51 1014.3
20260902183023 100 225 0.0 4.0 0.00 0.00 0.00 51 1014.3
20260902182524 100 251 1.0 4.0 0.00 0.00 0.00 49 1014.5
20260902182024 100 195 0.0 0.0 0.00 0.00 0.00 51 1014.5
20260902181525 100 244 0.0 0.0 0.00 0.00 0.00 54 1014.5
20260902181032 100 223 0.0 0.0 0.00 0.00 0.00 53 1014.5
20260902180536 100 248 0.0 1.0 0.00 0.00 0.00 52 1014.5
20260902180018 100 250 0.0 1.0 0.00 0.00 0.00 49 1014.5
20260902175537 100 188 0.0 0.0 0.00 0.00 0.00 51 1014.6
20260902175036 100 261 0.0 0.0 0.00 0.00 0.00 55 1014.6
20260902174546 99 261 0.0 1.0 0.00 0.00 0.00 54 1014.6
20260902174016 98 155 0.0 1.0 0.00 0.00 0.00 56 1014.9
20260902173521 98 308 0.0 0.0 0.00 0.00 0.00 54 1014.9
20260902173023 99 212 0.0 0.0 0.00 0.00 0.00 53 1014.9
20260902172022 99 298 0.0 0.0 0.00 0.00 0.00 55 1015.0
20260902171526 98 207 0.0 0.0 0.00 0.00 0.00 55 1015.0
20260902171103 97 206 0.0 2.0 0.00 0.00 0.00 56 1015.3
20260902170532 96 226 0.0 1.0 0.00 0.00 0.00 57 1015.3
20260902170017 96 165 0.0 0.0 0.00 0.00 0.00 57 1015.3
20260902165521 96 165 0.0 0.0 0.00 0.00 0.00 55 1015.5
20260902165035 97 159 0.0 0.0 0.00 0.00 0.00 55 1015.5
20260902164543 97 179 0.0 2.0 0.00 0.00 0.00 54 1015.5
20260902164052 97 181 0.0 2.0 0.00 0.00 0.00 57 1015.6
20260902163516 97 149 0.0 2.0 0.00 0.00 0.00 60 1015.6
20260902163032 97 199 0.0 2.0 0.00 0.00 0.00 58 1015.6
20260902162533 97 182 0.0 1.0 0.00 0.00 0.00 59 1015.9
20260902162034 97 186 0.0 1.0 0.00 0.00 0.00 63 1015.9
20260902161549 96 186 0.0 0.0 0.00 0.00 0.00 64 1015.9
20260902161024 95 186 0.0 0.0 0.00 0.00 0.00 63 1016.1
20260902160554 94 187 0.0 0.0 0.00 0.00 0.00 66 1016.1
20260902160026 93 185 0.0 1.0 0.00 0.00 0.00 67 1016.1
20260902155542 92 178 0.0 1.0 0.00 0.00 0.00 65 1016.1
20260902155050 92 178 0.0 0.0 0.00 0.00 0.00 66 1016.1
20260902154556 91 178 0.0 0.0 0.00 0.00 0.00 70 1016.1
20260902154027 90 178 0.0 0.0 0.00 0.00 0.00 74 1016.1
20260902153530 89 178 0.0 0.0 0.00 0.00 0.00 74 1016.1
20260902153038 89 178 0.0 0.0 0.00 0.00 0.00 73 1016.1
20260902152535 88 178 0.0 0.0 0.00 0.00 0.00 73 1016.1
20260902152026 87 178 0.0 0.0 0.00 0.00 0.00 73 1016.1
20260902151526 86 178 0.0 1.0 0.00 0.00 0.00 76 1016.1
20260902151025 86 178 0.0 1.0 0.00 0.00 0.00 82 1016.1
20260902150516 85 178 0.0 0.0 0.00 0.00 0.00 84 1016.1
20260902150025 85 178 0.0 0.0 0.00 0.00 0.00 84 1016.1
20260902145555 85 178 0.0 0.0 0.00 0.00 0.00 84 1016.1
20260902145027 84 178 0.0 0.0 0.00 0.00 0.00 83 1016.1
20260902144521 83 178 0.0 0.0 0.00 0.00 0.00 84 1016.1
20260902144025 83 178 0.0 0.0 0.00 0.00 0.00 84 1016.0
20260902143033 82 203 0.0 0.0 0.00 0.00 0.00 88 1016.0
20260902142523 81 203 0.0 0.0 0.00 0.00 0.00 89 1016.1
20260902142023 81 311 0.0 1.0 0.00 0.00 0.00 91 1016.1
20260902141516 80 311 0.0 0.0 0.00 0.00 0.00 92 1016.1
20260902141034 80 311 0.0 0.0 0.00 0.00 0.00 93 1016.1
20260902140553 80 311 0.0 0.0 0.00 0.00 0.00 93 1016.1
20260902140030 79 311 0.0 0.0 0.00 0.00 0.00 93 1016.1
20260902135530 79 311 0.0 0.0 0.00 0.00 0.00 93 1016.1
20260902135032 79 311 0.0 0.0 0.00 0.00 0.00 93 1016.1
20260902134529 78 311 0.0 0.0 0.00 0.00 0.00 94 1016.1
20260902134018 78 311 0.0 0.0 0.00 0.00 0.00 95 1016.1
20260902133521 78 311 0.0 0.0 0.00 0.00 0.00 95 1016.1
20260902133024 77 311 0.0 0.0 0.00 0.00 0.00 94 1016.1
20260902132539 77 311 0.0 0.0 0.00 0.00 0.00 95 1016.0
20260902132044 77 311 0.0 0.0 0.00 0.00 0.00 95 1016.0
20260902131557 77 311 0.0 0.0 0.00 0.00 0.00 95 1016.0
20260902131024 77 311 0.0 0.0 0.00 0.00 0.00 95 1016.0
20260902130541 76 311 0.0 0.0 0.00 0.00 0.00 95 1016.0
20260902130046 76 311 0.0 0.0 0.00 0.00 0.00 94 1016.0
20260902125600 76 311 0.0 0.0 0.00 0.00 0.00 95 1016.0
20260902125027 76 311 0.0 0.0 0.00 0.00 0.00 94 1016.0
20260902124535 76 311 0.0 0.0 0.00 0.00 0.00 95 1016.0
20260902124018 76 311 0.0 0.0 0.00 0.00 0.00 95 1016.0
20260902123535 76 311 0.0 0.0 0.00 0.00 0.00 94 1016.0
20260902123022 76 311 0.0 0.0 0.00 0.00 0.00 94 1016.0
20260902122526 76 311 0.0 0.0 0.00 0.00 0.00 94 1015.9
20260902122019 76 311 0.0 0.0 0.00 0.00 0.00 94 1015.9
20260902121533 76 311 0.0 0.0 0.00 0.00 0.00 94 1015.9
20260902121027 75 311 0.0 0.0 0.00 0.00 0.00 94 1015.8
20260902120530 75 311 0.0 0.0 0.00 0.00 0.00 94 1015.8
20260902120035 75 311 0.0 0.0 0.00 0.00 0.00 94 1015.8
20260902115516 75 311 0.0 0.0 0.00 0.00 0.00 94 1015.5
20260902115018 75 311 0.0 0.0 0.00 0.00 0.00 94 1015.5
20260902114551 75 311 0.0 0.0 0.00 0.00 0.00 94 1015.5
20260902114044 75 311 0.0 0.0 0.00 0.00 0.00 94 1015.5
20260902113524 75 311 0.0 0.0 0.00 0.00 0.00 94 1015.5
20260902113031 75 311 0.0 0.0 0.00 0.00 0.00 94 1015.5
20260902112524 75 311 0.0 0.0 0.00 0.00 0.00 94 1015.4
20260902112026 76 311 0.0 0.0 0.00 0.00 0.00 94 1015.4
20260902111536 75 311 0.0 0.0 0.00 0.00 0.00 94 1015.4
20260902111018 76 311 0.0 0.0 0.00 0.00 0.00 93 1015.1
20260902110520 76 311 0.0 0.0 0.00 0.00 0.00 93 1015.1
20260902110022 76 311 0.0 0.0 0.00 0.00 0.00 93 1015.1
20260902105548 76 311 0.0 0.0 0.00 0.00 0.00 93 1015.0
20260902105018 76 311 0.0 0.0 0.00 0.00 0.00 93 1015.0
20260902104519 76 311 0.0 0.0 0.00 0.00 0.00 93 1015.0
20260902104052 76 311 0.0 0.0 0.00 0.00 0.00 93 1015.0
20260902103520 76 311 0.0 0.0 0.00 0.00 0.00 93 1015.0
20260902103040 76 311 0.0 0.0 0.00 0.00 0.00 93 1015.0
20260902102518 76 311 0.0 0.0 0.00 0.00 0.00 93 1014.9
20260902101522 76 311 0.0 0.0 0.00 0.00 0.00 93 1014.9
20260902101036 76 311 0.0 0.0 0.00 0.00 0.00 93 1014.9
20260902100535 76 311 0.0 0.0 0.00 0.00 0.00 93 1014.9
20260902100023 76 311 0.0 0.0 0.00 0.00 0.00 92 1014.9
20260902095528 76 311 0.0 0.0 0.00 0.00 0.00 92 1014.6
20260902095014 76 311 0.0 0.0 0.00 0.00 0.00 92 1014.6
20260902094535 76 311 0.0 0.0 0.00 0.00 0.00 92 1014.6
20260902094038 76 311 0.0 0.0 0.00 0.00 0.00 92 1014.5
20260902093524 76 311 0.0 0.0 0.00 0.00 0.00 92 1014.5
20260902093016 76 311 0.0 0.0 0.00 0.00 0.00 92 1014.5
20260902092553 76 311 0.0 0.0 0.00 0.00 0.00 92 1014.4
20260902092017 76 311 0.0 0.0 0.00 0.00 0.00 92 1014.4
20260902091557 77 311 0.0 0.0 0.00 0.00 0.00 92 1014.4
20260902091022 77 311 0.0 0.0 0.00 0.00 0.00 91 1014.3
20260902090526 77 311 0.0 0.0 0.00 0.00 0.00 92 1014.3
20260902090028 77 311 0.0 0.0 0.00 0.00 0.00 92 1014.3
20260902085513 77 311 0.0 0.0 0.00 0.00 0.00 92 1014.2
20260902085031 77 311 0.0 0.0 0.00 0.00 0.00 91 1014.2
20260902084517 77 311 0.0 0.0 0.00 0.00 0.00 91 1014.2
20260902084018 77 311 0.0 0.0 0.00 0.00 0.00 91 1014.0
20260902083534 77 311 0.0 0.0 0.00 0.00 0.00 91 1014.0
20260902083035 77 311 0.0 0.0 0.00 0.00 0.00 91 1014.0
20260902082539 77 311 0.0 0.0 0.00 0.00 0.00 90 1014.0
20260902082024 77 311 0.0 0.0 0.00 0.00 0.00 90 1014.0
20260902081524 77 311 0.0 0.0 0.00 0.00 0.00 90 1014.0
20260902081027 77 311 0.0 0.0 0.00 0.00 0.00 90 1014.0
20260902080022 77 311 0.0 0.0 0.00 0.00 0.00 90 1014.0
20260902075532 77 311 0.0 0.0 0.00 0.00 0.00 90 1014.0
20260902075016 77 311 0.0 0.0 0.00 0.00 0.00 89 1014.0
20260902074534 77 311 0.0 0.0 0.00 0.00 0.00 89 1014.0
20260902074023 77 311 0.0 0.0 0.00 0.00 0.00 89 1014.0
20260902073530 77 311 0.0 0.0 0.00 0.00 0.00 89 1014.0
20260902072526 78 311 0.0 0.0 0.00 0.00 0.00 89 1014.0
20260902072032 78 311 0.0 0.0 0.00 0.00 0.00 89 1014.0
20260902071534 78 311 0.0 0.0 0.00 0.00 0.00 89 1014.0
20260902071048 78 311 0.0 0.0 0.00 0.00 0.00 89 1014.0
20260902070529 78 311 0.0 0.0 0.00 0.00 0.00 88 1014.0
20260902070033 78 311 0.0 0.0 0.00 0.00 0.00 88 1014.0
20260902065522 78 311 0.0 0.0 0.00 0.00 0.00 88 1014.0
20260902065030 78 311 0.0 0.0 0.00 0.00 0.00 88 1014.0
20260902064539 78 311 0.0 0.0 0.00 0.00 0.00 88 1014.0
20260902064040 78 311 0.0 0.0 0.00 0.00 0.00 88 1014.0
20260902063527 78 311 0.0 0.0 0.00 0.00 0.00 88 1014.0
20260902063028 78 311 0.0 0.0 0.00 0.00 0.00 87 1014.0
20260902062542 78 311 0.0 0.0 0.00 0.00 0.00 87 1014.0
20260902062029 78 311 0.0 0.0 0.00 0.00 0.00 87 1014.0
20260902061537 78 311 0.0 0.0 0.00 0.00 0.00 87 1014.0
20260902061100 79 311 0.0 0.0 0.00 0.00 0.00 87 1014.0
20260902060526 79 311 0.0 0.0 0.00 0.00 0.00 86 1014.0
20260902060033 79 311 0.0 0.0 0.00 0.00 0.00 86 1014.0
20260902055535 79 311 0.0 0.0 0.00 0.00 0.00 86 1014.1
20260902055021 79 311 0.0 0.0 0.00 0.00 0.00 86 1014.1
20260902054532 79 311 0.0 0.0 0.00 0.00 0.00 86 1014.1
20260902054032 79 311 0.0 0.0 0.00 0.00 0.00 86 1014.2
20260902053523 79 311 0.0 0.0 0.00 0.00 0.00 86 1014.2
20260902053039 79 311 0.0 0.0 0.00 0.00 0.00 86 1014.2
20260902052550 79 311 0.0 0.0 0.00 0.00 0.00 85 1014.1
20260902052013 79 311 0.0 0.0 0.00 0.00 0.00 85 1014.1
20260902051034 79 311 0.0 0.0 0.00 0.00 0.00 85 1014.1
20260902050542 79 311 0.0 0.0 0.00 0.00 0.00 85 1014.1
20260902050039 79 311 0.0 0.0 0.00 0.00 0.00 85 1014.1
20260902045526 80 311 0.0 0.0 0.00 0.00 0.00 84 1014.3
20260902045028 80 311 0.0 0.0 0.00 0.00 0.00 84 1014.3
20260902044533 80 311 0.0 0.0 0.00 0.00 0.00 84 1014.3
20260902044018 80 311 0.0 0.0 0.00 0.00 0.00 84 1014.3
20260902043530 80 311 0.0 0.0 0.00 0.00 0.00 84 1014.3
20260902043058 80 311 0.0 0.0 0.00 0.00 0.00 83 1014.3
20260902042542 80 311 0.0 0.0 0.00 0.00 0.00 83 1014.4
20260902042032 80 311 0.0 0.0 0.00 0.00 0.00 83 1014.4
20260902041516 80 311 0.0 0.0 0.00 0.00 0.00 83 1014.4
20260902041041 80 311 0.0 0.0 0.00 0.00 0.00 83 1014.5
20260902040532 80 311 0.0 0.0 0.00 0.00 0.00 83 1014.5
20260902040055 81 311 0.0 0.0 0.00 0.00 0.00 83 1014.5
20260902035544 81 311 0.0 0.0 0.00 0.00 0.00 82 1014.4
20260902035015 81 311 0.0 0.0 0.00 0.00 0.00 82 1014.4
20260902034532 81 311 0.0 0.0 0.00 0.00 0.00 82 1014.4
20260902034034 81 311 0.0 0.0 0.00 0.00 0.00 81 1014.5
20260902033521 81 311 0.0 0.0 0.00 0.00 0.00 81 1014.5
20260902033037 81 311 0.0 0.0 0.00 0.00 0.00 81 1014.5
20260902032532 81 311 0.0 0.0 0.00 0.00 0.00 81 1014.4
20260902032015 82 311 0.0 0.0 0.00 0.00 0.00 80 1014.4
20260902031029 82 311 0.0 0.0 0.00 0.00 0.00 80 1014.5
20260902030536 82 311 0.0 0.0 0.00 0.00 0.00 79 1014.5
20260902030045 82 311 0.0 0.0 0.00 0.00 0.00 79 1014.5
20260902025521 82 311 0.0 0.0 0.00 0.00 0.00 79 1014.4
20260902025025 82 311 0.0 0.0 0.00 0.00 0.00 79 1014.4
20260902024533 82 311 0.0 0.0 0.00 0.00 0.00 78 1014.4
20260902024022 82 311 0.0 0.0 0.00 0.00 0.00 78 1014.4
20260902023527 83 311 0.0 0.0 0.00 0.00 0.00 78 1014.4
20260902015024 84 311 0.0 0.0 0.00 0.00 0.00 75 1013.9
20260902014522 84 311 0.0 0.0 0.00 0.00 0.00 74 1013.9
20260902014035 85 311 0.0 0.0 0.00 0.00 0.00 73 1013.6
20260902013527 85 311 0.0 0.0 0.00 0.00 0.00 73 1013.6
20260902013023 86 311 0.0 0.0 0.00 0.00 0.00 73 1013.6
20260902012526 86 311 0.0 0.0 0.00 0.00 0.00 71 1013.5
20260902001034 89 311 0.0 0.0 0.00 0.00 0.00 66 1013.3
20260902000536 89 311 0.0 0.0 0.00 0.00 0.00 65 1013.3
20260902000022 89 311 0.0 0.0 0.00 0.00 0.00 65 1013.3
20260901235542 89 311 0.0 0.0 0.00 0.00 0.00 65 1013.4
20260901235022 89 311 0.0 0.0 0.00 0.00 0.00 64 1013.4
20260901234517 89 311 0.0 0.0 0.00 0.00 0.00 64 1013.4
20260901234032 90 311 0.0 0.0 0.00 0.00 0.00 65 1013.4
20260901233534 90 311 0.0 0.0 0.00 0.00 0.00 63 1013.4
20260901233038 90 311 0.0 0.0 0.00 0.00 0.00 63 1013.4
20260901232530 90 311 0.0 0.0 0.00 0.00 0.00 62 1013.4
20260901232027 90 311 0.0 0.0 0.00 0.00 0.00 63 1013.4
20260901231529 90 311 0.0 0.0 0.00 0.00 0.00 62 1013.4
20260901230528 91 311 0.0 0.0 0.00 0.00 0.00 62 1013.4
20260901230100 91 311 0.0 0.0 0.00 0.00 0.00 62 1013.4
20260901225542 91 311 0.0 1.0 0.00 0.00 0.00 60 1013.4
20260901225033 91 311 0.0 1.0 0.00 0.00 0.00 61 1013.4
20260901224549 91 311 0.0 0.0 0.00 0.00 0.00 60 1013.4
20260901224026 92 311 0.0 0.0 0.00 0.00 0.00 60 1013.3
20260901223522 92 311 0.0 0.0 0.00 0.00 0.00 59 1013.3
20260901223029 92 240 0.0 3.0 0.00 0.00 0.00 60 1013.3
20260901222527 92 240 0.0 3.0 0.00 0.00 0.00 58 1013.2
20260901215519 93 313 0.0 0.0 0.00 0.00 0.00 58 1013.3
20260901215024 93 316 0.0 0.0 0.00 0.00 0.00 56 1013.3
20260901214040 93 316 0.0 0.0 0.00 0.00 0.00 56 1013.4
20260901213550 93 234 0.0 0.0 0.00 0.00 0.00 57 1013.4
20260901213029 93 182 0.0 1.0 0.00 0.00 0.00 56 1013.4
20260901212525 94 242 0.0 0.0 0.00 0.00 0.00 56 1013.3
20260901212024 94 192 0.0 2.0 0.00 0.00 0.00 56 1013.3
20260901211522 94 203 0.0 1.0 0.00 0.00 0.00 55 1013.3
20260901211019 94 211 0.0 0.0 0.00 0.00 0.00 55 1013.5
20260901210529 94 295 0.0 0.0 0.00 0.00 0.00 55 1013.5
20260901205541 94 307 0.0 0.0 0.00 0.00 0.00 52 1013.4
20260901205034 94 309 0.0 5.0 0.00 0.00 0.00 55 1013.4
20260901204531 94 264 0.0 5.0 0.00 0.00 0.00 52 1013.4
20260901204028 95 290 0.0 0.0 0.00 0.00 0.00 53 1013.9
20260901203520 95 286 0.0 2.0 0.00 0.00 0.00 54 1013.9
20260901203029 95 286 0.0 2.0 0.00 0.00 0.00 52 1013.9
20260901202538 95 286 0.0 4.0 0.00 0.00 0.00 52 1014.0
20260901202022 95 229 0.0 4.0 0.00 0.00 0.00 53 1014.0
20260901201519 96 231 0.0 0.0 0.00 0.00 0.00 56 1014.0
20260901201014 96 231 0.0 0.0 0.00 0.00 0.00 55 1014.0
20260901200533 96 232 0.0 1.0 0.00 0.00 0.00 53 1014.0
20260901200029 96 322 0.0 1.0 0.00 0.00 0.00 52 1014.0
20260901195528 96 247 0.0 0.0 0.00 0.00 0.00 54 1014.4
20260901195019 96 222 0.0 0.0 0.00 0.00 0.00 53 1014.4
20260901194536 96 302 0.0 2.0 0.00 0.00 0.00 53 1014.4
20260901194045 96 302 0.0 4.0 0.00 0.00 0.00 53 1014.4
20260901193552 97 170 0.0 4.0 0.00 0.00 0.00 51 1014.4
20260901193057 97 198 0.0 1.0 0.00 0.00 0.00 51 1014.4